BCS846 EDDP-EETN

Flight info

Callsign BCS846
Flight time 1h 32m
Altitude 33000
Route PENEM1N PENEM Z131 PENEK DCT LOLPA DCT BINKA DCT DEMUR DCT GORPI DCT DEREX DCT TODNA DCT ETHUV DCT ADBIB DCT SULUN
Aircraft A306/H-SDE3FGHIRWY/LB1

Departure

Time 2026-05-06 10:29
Airport Leipzig/Halle Airport (EDDP)

Arrival

Time 2026-05-06 12:01
Airport Lennart Meri Tallinn Airport (EETN)
Time Latitude Longitude Altitude Speed Heading
2026-05-06 09:51 51.40870 12.24037 470 ft 0 kts 265°
2026-05-06 10:15 51.40871 12.24050 472 ft 4 kts 265°
2026-05-06 10:15 51.40873 12.24090 466 ft 2 kts 265°
2026-05-06 10:15 51.40872 12.24124 470 ft 4 kts 300°
2026-05-06 10:15 51.40856 12.24141 465 ft 4 kts 355°
2026-05-06 10:16 51.40837 12.24143 469 ft 0 kts 355°
2026-05-06 10:16 51.40837 12.24144 469 ft 0 kts 355°
2026-05-06 10:21 51.40838 12.24143 469 ft 2 kts 355°
2026-05-06 10:21 51.40893 12.24137 470 ft 12 kts 355°
2026-05-06 10:21 51.40963 12.24128 472 ft 8 kts 355°
2026-05-06 10:22 51.41025 12.24122 471 ft 9 kts
2026-05-06 10:22 51.41079 12.24182 473 ft 14 kts 66°
2026-05-06 10:22 51.41088 12.24329 471 ft 12 kts 85°
2026-05-06 10:22 51.41091 12.24451 477 ft 11 kts 86°
2026-05-06 10:23 51.41098 12.24610 472 ft 18 kts 85°
2026-05-06 10:23 51.41108 12.24835 478 ft 23 kts 86°
2026-05-06 10:23 51.41121 12.25137 473 ft 28 kts 85°
2026-05-06 10:23 51.41134 12.25427 475 ft 23 kts 87°
2026-05-06 10:24 51.41139 12.25564 481 ft 7 kts 84°
2026-05-06 10:24 51.41155 12.25613 475 ft 3 kts 44°
2026-05-06 10:24 51.41165 12.25623 477 ft 0 kts 32°
2026-05-06 10:24 51.41170 12.25627 477 ft 5 kts 26°
2026-05-06 10:25 51.41216 12.25628 481 ft 6 kts 351°
2026-05-06 10:25 51.41250 12.25620 482 ft 4 kts 352°
2026-05-06 10:25 51.41269 12.25616 480 ft 2 kts 353°
2026-05-06 10:25 51.41333 12.25603 479 ft 16 kts 353°
2026-05-06 10:26 51.41398 12.25520 482 ft 12 kts 270°
2026-05-06 10:26 51.41395 12.25446 484 ft 0 kts 266°
2026-05-06 10:27 51.41394 12.25428 483 ft 12 kts 266°
2026-05-06 10:28 51.41371 12.24942 479 ft 74 kts 267°
2026-05-06 10:28 51.41320 12.23836 473 ft 125 kts 267°
2026-05-06 10:28 51.41241 12.22219 465 ft 169 kts 266°
2026-05-06 10:28 51.41131 12.20188 810 ft 186 kts 265°
2026-05-06 10:29 51.41027 12.18158 1773 ft 181 kts 266°
2026-05-06 10:29 51.40948 12.16129 2512 ft 188 kts 266°
2026-05-06 10:29 51.40886 12.13895 2884 ft 209 kts 266°
2026-05-06 10:29 51.40823 12.11642 3980 ft 196 kts 269°
2026-05-06 10:30 51.41033 12.09463 4769 ft 211 kts 288°
2026-05-06 10:30 51.41969 12.07560 5308 ft 230 kts 320°
2026-05-06 10:30 51.43565 12.06715 5614 ft 259 kts 356°
2026-05-06 10:30 51.45411 12.07105 6011 ft 274 kts
2026-05-06 10:31 51.46694 12.07437 6325 ft 278 kts
2026-05-06 10:31 51.48600 12.07778 6790 ft 283 kts
2026-05-06 10:31 51.50583 12.07977 7515 ft 286 kts 359°
2026-05-06 10:31 51.52580 12.08090 8361 ft 288 kts 358°
2026-05-06 10:32 51.54596 12.08197 9171 ft 292 kts 358°
2026-05-06 10:32 51.56643 12.08299 9934 ft 296 kts 358°
2026-05-06 10:32 51.58734 12.08389 10439 ft 308 kts 358°
2026-05-06 10:32 51.60937 12.08471 10724 ft 326 kts 358°
2026-05-06 10:33 51.63264 12.08555 10988 ft 342 kts 358°
2026-05-06 10:33 51.65702 12.08643 11251 ft 358 kts 358°
2026-05-06 10:33 51.68250 12.08738 11555 ft 372 kts 359°
2026-05-06 10:33 51.70870 12.09273 11909 ft 387 kts 12°
2026-05-06 10:34 51.73411 12.10825 12415 ft 395 kts 22°
2026-05-06 10:34 51.75881 12.12808 12932 ft 400 kts 26°
2026-05-06 10:34 51.78297 12.14990 13479 ft 404 kts 28°
2026-05-06 10:34 51.80753 12.17282 13973 ft 408 kts 27°
2026-05-06 10:35 51.83247 12.19496 14459 ft 412 kts 26°
2026-05-06 10:35 51.85805 12.21643 14924 ft 415 kts 25°
2026-05-06 10:35 51.88398 12.23741 15426 ft 418 kts 24°
2026-05-06 10:35 51.91025 12.25827 15924 ft 422 kts 24°
2026-05-06 10:36 51.93672 12.27920 16415 ft 425 kts 24°
2026-05-06 10:36 51.96341 12.30034 16921 ft 429 kts 24°
2026-05-06 10:36 51.99035 12.32180 17336 ft 434 kts 24°
2026-05-06 10:36 52.01756 12.34355 17785 ft 438 kts 24°
2026-05-06 10:37 52.04504 12.36560 18229 ft 441 kts 24°
2026-05-06 10:37 52.07265 12.38780 18647 ft 444 kts 24°
2026-05-06 10:37 52.10041 12.41008 19072 ft 446 kts 24°
2026-05-06 10:37 52.12832 12.43236 19590 ft 446 kts 24°
2026-05-06 10:38 52.15629 12.45464 20034 ft 448 kts 24°
2026-05-06 10:38 52.18439 12.47700 20409 ft 451 kts 24°
2026-05-06 10:38 52.21268 12.49954 20800 ft 454 kts 25°
2026-05-06 10:38 52.24112 12.52225 21141 ft 456 kts 25°
2026-05-06 10:39 52.26970 12.54512 21508 ft 459 kts 25°
2026-05-06 10:39 52.29845 12.56816 21880 ft 461 kts 25°
2026-05-06 10:39 52.32726 12.59131 22231 ft 463 kts 25°
2026-05-06 10:39 52.35623 12.61462 22710 ft 463 kts 25°
2026-05-06 10:40 52.38451 12.63961 23158 ft 464 kts 30°
2026-05-06 10:40 52.41090 12.67055 23466 ft 468 kts 37°
2026-05-06 10:40 52.43613 12.70436 23755 ft 470 kts 39°
2026-05-06 10:40 52.46095 12.73951 24056 ft 471 kts 40°
2026-05-06 10:41 52.48544 12.77525 24347 ft 472 kts 41°
2026-05-06 10:41 52.50957 12.81090 24622 ft 473 kts 41°
2026-05-06 10:41 52.53407 12.84718 24919 ft 474 kts 41°
2026-05-06 10:41 52.55861 12.88345 25218 ft 474 kts 41°
2026-05-06 10:42 52.58312 12.91962 25676 ft 471 kts 41°
2026-05-06 10:42 52.60751 12.95555 25929 ft 472 kts 41°
2026-05-06 10:42 52.63203 12.99166 26168 ft 474 kts 41°
2026-05-06 10:42 52.65672 13.02802 26364 ft 476 kts 41°
2026-05-06 10:43 52.68139 13.06441 26614 ft 476 kts 41°
2026-05-06 10:43 52.70614 13.10097 26799 ft 479 kts 41°
2026-05-06 10:43 52.73102 13.13778 27032 ft 479 kts 42°
2026-05-06 10:44 52.78077 13.21161 27351 ft 483 kts 41°
2026-05-06 10:44 52.80552 13.24844 27521 ft 485 kts 41°
2026-05-06 10:44 52.83102 13.28616 27810 ft 487 kts 41°
2026-05-06 10:44 52.85592 13.32305 28093 ft 486 kts 41°
2026-05-06 10:45 52.88094 13.36047 28467 ft 483 kts 41°
2026-05-06 10:45 52.90613 13.39832 28776 ft 482 kts 41°
2026-05-06 10:45 52.93062 13.43520 29028 ft 482 kts 41°
2026-05-06 10:45 52.95542 13.47259 29345 ft 481 kts 41°
2026-05-06 10:46 52.98010 13.50991 29799 ft 478 kts 41°
2026-05-06 10:46 53.00447 13.54673 30388 ft 471 kts 42°
2026-05-06 10:46 53.02904 13.58288 30584 ft 472 kts 38°
2026-05-06 10:46 53.05603 13.61402 30691 ft 473 kts 31°
2026-05-06 10:47 53.08439 13.64205 30912 ft 473 kts 29°
2026-05-06 10:47 53.11309 13.66925 31125 ft 474 kts 28°
2026-05-06 10:47 53.14188 13.69589 31367 ft 474 kts 28°
2026-05-06 10:47 53.17089 13.72249 31551 ft 475 kts 28°
2026-05-06 10:48 53.19989 13.74907 31767 ft 476 kts 28°
2026-05-06 10:48 53.22886 13.77573 32014 ft 476 kts 30°
2026-05-06 10:48 53.25782 13.80250 32408 ft 474 kts 30°
2026-05-06 10:48 53.28667 13.82927 32618 ft 476 kts 30°
2026-05-06 10:49 53.31561 13.85626 32943 ft 476 kts 30°
2026-05-06 10:49 53.37326 13.91018 33018 ft 471 kts 30°
2026-05-06 10:50 53.43003 13.96335 33017 ft 469 kts 31°
2026-05-06 10:50 53.48693 14.01684 33030 ft 467 kts 30°
2026-05-06 10:51 53.54363 14.07033 33027 ft 467 kts 31°
2026-05-06 10:51 53.60028 14.12394 33035 ft 467 kts 31°
2026-05-06 10:52 53.65697 14.17769 33027 ft 470 kts 31°
2026-05-06 10:52 53.71409 14.23207 33038 ft 472 kts 31°
2026-05-06 10:53 53.76639 14.29809 33041 ft 468 kts 48°
2026-05-06 10:53 53.78771 14.33958 32889 ft 466 kts 53°
2026-05-06 10:53 53.80761 14.38206 32834 ft 465 kts 54°
2026-05-06 10:54 53.84638 14.46984 32823 ft 465 kts 56°
2026-05-06 10:54 53.88471 14.55822 32823 ft 466 kts 56°
2026-05-06 10:55 53.92326 14.64679 32822 ft 467 kts 56°
2026-05-06 10:55 53.96189 14.73532 32815 ft 467 kts 56°
2026-05-06 10:56 54.00060 14.82418 32814 ft 467 kts 56°
2026-05-06 10:56 54.03896 14.91252 32798 ft 466 kts 57°
2026-05-06 10:57 54.08248 14.99506 32805 ft 474 kts 41°
2026-05-06 10:57 54.13923 15.05307 32824 ft 478 kts 27°
2026-05-06 10:58 54.19986 15.10038 32820 ft 480 kts 25°
2026-05-06 10:58 54.26114 15.14608 32832 ft 482 kts 25°
2026-05-06 10:59 54.32253 15.19237 32831 ft 481 kts 25°
2026-05-06 10:59 54.38373 15.23915 32838 ft 482 kts 25°
2026-05-06 11:00 54.44500 15.28634 32844 ft 482 kts 25°
2026-05-06 11:00 54.50590 15.33343 32856 ft 482 kts 25°
2026-05-06 11:01 54.56753 15.38122 32859 ft 483 kts 25°
2026-05-06 11:01 54.62855 15.42867 32862 ft 484 kts 25°
2026-05-06 11:02 54.69005 15.47664 32870 ft 484 kts 25°
2026-05-06 11:02 54.75135 15.52462 32870 ft 484 kts 25°
2026-05-06 11:03 54.81286 15.57294 32879 ft 485 kts 25°
2026-05-06 11:03 54.87443 15.62146 32873 ft 486 kts 25°
2026-05-06 11:04 54.93240 15.68083 32887 ft 484 kts 39°
2026-05-06 11:04 54.98439 15.75492 32893 ft 483 kts 42°
2026-05-06 11:05 55.03487 15.83103 32895 ft 483 kts 43°
2026-05-06 11:05 55.08553 15.90816 32897 ft 483 kts 43°
2026-05-06 11:06 55.13654 15.98570 32900 ft 483 kts 43°
2026-05-06 11:06 55.18700 16.06240 32893 ft 483 kts 43°
2026-05-06 11:07 55.23766 16.13960 32906 ft 483 kts 43°
2026-05-06 11:07 55.28822 16.21693 32904 ft 480 kts 43°
2026-05-06 11:08 55.33831 16.29382 32912 ft 479 kts 43°
2026-05-06 11:08 55.38846 16.37109 32902 ft 479 kts 44°
2026-05-06 11:09 55.43857 16.44858 32912 ft 479 kts 44°
2026-05-06 11:09 55.48858 16.52618 32907 ft 480 kts 44°
2026-05-06 11:10 55.53881 16.60439 32922 ft 481 kts 44°
2026-05-06 11:10 55.58858 16.68213 32916 ft 475 kts 44°
2026-05-06 11:11 55.63805 16.75969 32928 ft 475 kts 44°
2026-05-06 11:11 55.68709 16.83687 32944 ft 475 kts 44°
2026-05-06 11:12 55.73664 16.91515 32941 ft 479 kts 44°
2026-05-06 11:12 55.78672 16.99450 32946 ft 480 kts 44°
2026-05-06 11:13 55.83618 17.07315 32940 ft 480 kts 44°
2026-05-06 11:13 55.88584 17.15240 32930 ft 480 kts 44°
2026-05-06 11:14 55.93561 17.23214 32936 ft 482 kts 44°
2026-05-06 11:14 55.97713 17.29887 32947 ft 484 kts 44°
2026-05-06 11:15 56.02714 17.37951 32937 ft 484 kts 44°
2026-05-06 11:15 56.07713 17.46041 32953 ft 484 kts 44°
2026-05-06 11:16 56.12706 17.54149 32951 ft 484 kts 44°
2026-05-06 11:16 56.17693 17.62280 32944 ft 485 kts 44°
2026-05-06 11:17 56.22694 17.70463 32966 ft 486 kts 44°
2026-05-06 11:17 56.27684 17.78658 32961 ft 486 kts 44°
2026-05-06 11:18 56.32670 17.86877 32970 ft 486 kts 44°
2026-05-06 11:18 56.37626 17.95076 32967 ft 487 kts 44°
2026-05-06 11:19 56.42640 18.03404 32971 ft 490 kts 44°
2026-05-06 11:19 56.47653 18.11760 32969 ft 490 kts 44°
2026-05-06 11:20 56.52665 18.20145 32973 ft 490 kts 44°
2026-05-06 11:20 56.57663 18.28541 32999 ft 489 kts 44°
2026-05-06 11:21 56.62674 18.36987 32982 ft 493 kts 43°
2026-05-06 11:21 56.67665 18.45431 32994 ft 494 kts 44°
2026-05-06 11:22 56.72717 18.54013 32992 ft 494 kts 44°
2026-05-06 11:22 56.77702 18.62515 32997 ft 493 kts 44°
2026-05-06 11:23 56.82719 18.71102 32986 ft 495 kts 43°
2026-05-06 11:23 56.87752 18.79752 32993 ft 497 kts 43°
2026-05-06 11:24 56.92789 18.88440 32992 ft 498 kts 43°
2026-05-06 11:24 56.97796 18.97112 32991 ft 492 kts 43°
2026-05-06 11:25 57.02754 19.05733 33022 ft 491 kts 43°
2026-05-06 11:25 57.07722 19.14404 33000 ft 495 kts 43°
2026-05-06 11:26 57.12710 19.23145 33003 ft 495 kts 43°
2026-05-06 11:26 57.17701 19.31924 32972 ft 495 kts 43°
2026-05-06 11:27 57.22667 19.40700 32999 ft 494 kts 43°
2026-05-06 11:27 57.27591 19.49424 33002 ft 493 kts 43°
2026-05-06 11:28 57.32538 19.58227 33008 ft 493 kts 43°
2026-05-06 11:28 57.37486 19.67067 33007 ft 493 kts 43°
2026-05-06 11:29 57.42417 19.75913 33003 ft 493 kts 44°
2026-05-06 11:29 57.47348 19.84795 33026 ft 494 kts 43°
2026-05-06 11:30 57.52298 19.93745 33008 ft 498 kts 43°
2026-05-06 11:30 57.57229 20.02699 33015 ft 499 kts 44°
2026-05-06 11:31 57.62189 20.11739 33013 ft 499 kts 44°
2026-05-06 11:31 57.66889 20.21283 33019 ft 502 kts 56°
2026-05-06 11:32 57.70301 20.32774 33020 ft 510 kts 65°
2026-05-06 11:32 57.73376 20.44859 33020 ft 517 kts 66°
2026-05-06 11:33 57.76394 20.57100 33019 ft 523 kts 66°
2026-05-06 11:33 57.79454 20.69490 33024 ft 524 kts 66°
2026-05-06 11:34 57.82520 20.81888 33022 ft 524 kts 66°
2026-05-06 11:34 57.85582 20.94308 33018 ft 524 kts 66°
2026-05-06 11:35 57.88635 21.06762 33028 ft 526 kts 67°
2026-05-06 11:35 57.91690 21.19303 33027 ft 527 kts 67°
2026-05-06 11:36 57.94713 21.31788 33022 ft 527 kts 66°
2026-05-06 11:36 57.97741 21.44361 33024 ft 527 kts 66°
2026-05-06 11:37 58.00561 21.57071 33032 ft 525 kts 74°
2026-05-06 11:37 58.02819 21.70197 33066 ft 525 kts 75°
2026-05-06 11:38 58.04963 21.83401 33025 ft 528 kts 76°
2026-05-06 11:38 58.07074 21.96627 33029 ft 529 kts 76°
2026-05-06 11:39 58.09474 22.09759 33032 ft 530 kts 62°
2026-05-06 11:39 58.11497 22.15571 33036 ft 528 kts 51°
2026-05-06 11:39 58.13778 22.21005 33024 ft 528 kts 49°
2026-05-06 11:40 58.18560 22.31546 33023 ft 528 kts 46°
2026-05-06 11:40 58.23433 22.42009 33029 ft 530 kts 47°
2026-05-06 11:41 58.28308 22.52594 33019 ft 533 kts 47°
2026-05-06 11:41 58.33130 22.63201 33021 ft 533 kts 47°
2026-05-06 11:42 58.37970 22.73925 33030 ft 533 kts 47°
2026-05-06 11:42 58.42798 22.84674 33051 ft 534 kts 47°
2026-05-06 11:43 58.47653 22.95523 33033 ft 539 kts 47°
2026-05-06 11:43 58.52523 23.06458 33028 ft 539 kts 47°
2026-05-06 11:44 58.59821 23.22821 33028 ft 536 kts 46°
2026-05-06 11:44 58.64691 23.33597 32763 ft 533 kts 46°
2026-05-06 11:45 58.67123 23.38997 31924 ft 534 kts 47°
2026-05-06 11:45 58.69555 23.44413 31168 ft 534 kts 47°
2026-05-06 11:45 58.71971 23.49806 30538 ft 529 kts 47°
2026-05-06 11:45 58.74348 23.55129 29564 ft 522 kts 47°
2026-05-06 11:46 58.76698 23.60403 28657 ft 513 kts 47°
2026-05-06 11:46 58.79005 23.65593 27710 ft 506 kts 47°
2026-05-06 11:46 58.81272 23.70704 26852 ft 498 kts 47°
2026-05-06 11:46 58.83475 23.75680 26000 ft 490 kts 47°
2026-05-06 11:47 58.85685 23.80684 25148 ft 486 kts 46°
2026-05-06 11:47 58.87866 23.85631 24370 ft 479 kts 46°
2026-05-06 11:47 58.90009 23.90504 23570 ft 473 kts 46°
2026-05-06 11:47 58.92131 23.95337 22765 ft 464 kts 46°
2026-05-06 11:48 58.94208 24.00079 21893 ft 458 kts 46°
2026-05-06 11:48 58.96247 24.04739 21128 ft 450 kts 46°
2026-05-06 11:48 58.98066 24.09656 20363 ft 445 kts 55°
2026-05-06 11:48 58.99672 24.14746 19568 ft 440 kts 57°
2026-05-06 11:49 59.01230 24.19790 18868 ft 432 kts 57°
2026-05-06 11:49 59.02765 24.24765 18100 ft 427 kts 57°
2026-05-06 11:49 59.04275 24.29661 17229 ft 419 kts 57°
2026-05-06 11:49 59.05762 24.34479 16531 ft 411 kts 56°
2026-05-06 11:50 59.07220 24.39212 15687 ft 406 kts 57°
2026-05-06 11:50 59.08659 24.43887 14967 ft 398 kts 57°
2026-05-06 11:50 59.10059 24.48444 14575 ft 382 kts 57°
2026-05-06 11:50 59.11373 24.52738 14485 ft 358 kts 57°
2026-05-06 11:51 59.12613 24.56793 14058 ft 349 kts 56°
2026-05-06 11:51 59.13867 24.60887 13467 ft 345 kts 57°
2026-05-06 11:51 59.15069 24.64823 12894 ft 339 kts 57°
2026-05-06 11:51 59.16263 24.68740 12358 ft 333 kts 57°
2026-05-06 11:52 59.17435 24.72592 11827 ft 327 kts 57°
2026-05-06 11:52 59.18584 24.76377 11295 ft 322 kts 57°
2026-05-06 11:52 59.19715 24.80106 10772 ft 316 kts 57°
2026-05-06 11:52 59.20825 24.83774 10257 ft 311 kts 57°
2026-05-06 11:53 59.21913 24.87372 9725 ft 305 kts 57°
2026-05-06 11:53 59.22985 24.90921 9139 ft 301 kts 57°
2026-05-06 11:53 59.24037 24.94413 8549 ft 296 kts 58°
2026-05-06 11:53 59.25070 24.97848 8037 ft 290 kts 58°
2026-05-06 11:54 59.26090 25.01243 7424 ft 288 kts 58°
2026-05-06 11:54 59.27084 25.04554 6914 ft 283 kts 58°
2026-05-06 11:54 59.28076 25.07862 6352 ft 281 kts 58°
2026-05-06 11:54 59.29056 25.11138 5815 ft 276 kts 58°
2026-05-06 11:55 59.30014 25.14347 5308 ft 270 kts 59°
2026-05-06 11:55 59.30950 25.17487 4727 ft 267 kts 58°
2026-05-06 11:55 59.31898 25.20595 4124 ft 264 kts 53°
2026-05-06 11:55 59.33199 25.23050 3527 ft 260 kts 26°
2026-05-06 11:56 59.34910 25.23855 3097 ft 250 kts
2026-05-06 11:56 59.36648 25.23932 3007 ft 250 kts 359°
2026-05-06 11:56 59.38346 25.23940 2976 ft 237 kts 357°
2026-05-06 11:56 59.39885 25.23257 2969 ft 222 kts 330°
2026-05-06 11:57 59.40913 25.21167 2996 ft 208 kts 296°
2026-05-06 11:57 59.41203 25.18485 3004 ft 200 kts 276°
2026-05-06 11:57 59.41233 25.15772 2983 ft 193 kts 272°
2026-05-06 11:57 59.41231 25.13216 2895 ft 183 kts 272°
2026-05-06 11:58 59.41243 25.10753 2655 ft 178 kts 272°
2026-05-06 11:58 59.41252 25.08345 2406 ft 175 kts 274°
2026-05-06 11:58 59.41260 25.05966 2153 ft 173 kts 274°
2026-05-06 11:58 59.41266 25.03632 1926 ft 166 kts 273°
2026-05-06 11:59 59.41270 25.01454 1706 ft 152 kts 274°
2026-05-06 11:59 59.41275 25.00119 1531 ft 143 kts 274°
2026-05-06 11:59 59.41282 24.98188 1356 ft 141 kts 274°
2026-05-06 11:59 59.41290 24.95625 1094 ft 142 kts 274°
2026-05-06 12:00 59.41295 24.93698 882 ft 140 kts 274°
2026-05-06 12:00 59.41299 24.92409 751 ft 139 kts 274°
2026-05-06 12:00 59.41307 24.90511 583 ft 137 kts 274°
2026-05-06 12:00 59.41309 24.88652 390 ft 136 kts 274°
2026-05-06 12:01 59.41313 24.86797 209 ft 135 kts 274°
2026-05-06 12:01 59.41327 24.85049 169 ft 114 kts 269°
2026-05-06 12:01 59.41327 24.83829 170 ft 65 kts 269°
2026-05-06 12:01 59.41328 24.83267 170 ft 19 kts 271°
2026-05-06 12:02 59.41332 24.83005 166 ft 19 kts 271°
2026-05-06 12:02 59.41351 24.82776 167 ft 15 kts 286°
2026-05-06 12:02 59.41384 24.82593 167 ft 13 kts 293°
2026-05-06 12:02 59.41421 24.82454 167 ft 10 kts 298°
2026-05-06 12:03 59.41456 24.82356 168 ft 7 kts 322°
2026-05-06 12:03 59.41492 24.82355 168 ft 4 kts 26°
2026-05-06 12:03 59.41503 24.82385 168 ft 1 kts 70°
2026-05-06 12:03 59.41503 24.82441 168 ft 7 kts 90°
2026-05-06 12:04 59.41501 24.82612 168 ft 18 kts 90°
2026-05-06 12:04 59.41501 24.82932 168 ft 26 kts 90°
2026-05-06 12:04 59.41500 24.83277 168 ft 24 kts 90°
2026-05-06 12:04 59.41499 24.83598 168 ft 23 kts 90°
2026-05-06 12:05 59.41498 24.83896 168 ft 21 kts 90°
2026-05-06 12:05 59.41498 24.84171 168 ft 20 kts 90°
2026-05-06 12:05 59.41497 24.84432 168 ft 18 kts 90°
2026-05-06 12:05 59.41496 24.84668 168 ft 17 kts 90°
2026-05-06 12:06 59.41494 24.84891 168 ft 15 kts 94°
2026-05-06 12:06 59.41437 24.85020 168 ft 13 kts 173°
2026-05-06 12:06 59.41357 24.85011 168 ft 11 kts 182°
2026-05-06 12:06 59.41253 24.85009 169 ft 17 kts 180°
2026-05-06 12:07 59.41154 24.85067 168 ft 14 kts 116°
2026-05-06 12:07 59.41149 24.85247 168 ft 13 kts 91°
2026-05-06 12:07 59.41148 24.85369 168 ft 1 kts 91°
2026-05-06 12:07 59.41148 24.85403 168 ft 6 kts 87°
2026-05-06 12:08 59.41141 24.85469 168 ft 6 kts 134°
2026-05-06 12:08 59.41096 24.85478 168 ft 6 kts 179°
2026-05-06 12:08 59.41058 24.85479 168 ft 5 kts 180°
2026-05-06 12:08 59.41044 24.85479 168 ft 0 kts 180°
2026-05-06 12:09 59.41043 24.85479 168 ft 0 kts 180°